Tracking 20370 objects as of 20-Feb-2020
HD Live streaming from Space Station
objects crossing your sky now
Track the group of recently launched Starlink satellites

COSMOS 1524

Track COSMOS 1524 now!
10-day predictions
COSMOS 1524 is classified as:


NORAD ID: 14613
Int'l Code: 1984-001C
Perigee: 1,418.4 km
Apogee: 1,469.1 km
Inclination: 74.0 °
Period: 114.6 minutes
Semi major axis: 7814 km
RCS: 0.6947 m2 (medium)
Launch date: January 5, 1984
Source: Commonwealth of Independent States (former USSR) (CIS)
Launch site: PLESETSK MISSILE AND SPACE COMPLEX (PKMTR)
aabbcc
Your satellite tracking list
Your tracking list is empty




NASA's NSSDC Master Catalog

Two Line Element Set (TLE):
1 14613U 84001C   20050.41351385  .00000007  00000-0  14328-3 0  9993
2 14613  74.0068 282.0144 0032406 215.8063 318.4256 12.56701928657359
Source of the keplerian elements: AFSPC